OE-11365 Weather Reports


time (UTC)temp
F
wind
direction
speed
knots
gust
knots
rain 1hr
in
rain 24hr
in
rain mn
in
humidity
%
barometer
mb
20260903131145 78 58 6.1 9.6 0.00 0.01 0.01 40 1017.1
20260903130532 79 75 5.2 8.7 0.00 0.01 0.01 38 1017.0
20260903125532 79 69 4.3 7.8 0.00 0.01 0.01 38 1017.0
20260903124145 77 46 6.1 11.3 0.00 0.01 0.01 42 1017.2
20260903123532 77 46 6.1 10.4 0.00 0.01 0.01 44 1017.2
20260903122532 77 57 3.5 7.0 0.00 0.01 0.01 43 1017.2
20260903121145 77 51 4.3 7.8 0.00 0.01 0.01 45 1017.5
20260903120531 77 8 2.6 5.2 0.00 0.01 0.01 44 1017.4
20260903115532 76 50 3.5 8.7 0.00 0.01 0.01 43 1017.6
20260903114141 78 75 1.7 5.2 0.00 0.01 0.01 43 1017.5
20260903113532 77 62 3.5 7.0 0.00 0.01 0.01 42 1017.6
20260903112531 77 86 2.6 7.8 0.00 0.01 0.01 40 1017.6
20260903111145 76 95 2.6 8.7 0.00 0.01 0.01 44 1017.8
20260903110532 75 70 1.7 4.3 0.00 0.01 0.01 45 1018.0
20260903105532 74 88 3.5 7.0 0.00 0.01 0.01 48 1018.6
20260903104145 74 79 3.5 6.1 0.00 0.01 0.01 52 1019.0
20260903103532 73 66 4.3 7.8 0.00 0.01 0.01 52 1019.1
20260903102532 73 77 3.5 6.1 0.00 0.01 0.01 57 1019.1
20260903101145 71 60 3.5 7.0 0.00 0.01 0.01 60 1019.4
20260903100532 71 65 2.6 6.1 0.00 0.01 0.01 61 1019.6
20260903095532 70 70 3.5 5.2 0.00 0.01 0.01 61 1019.9
20260903094144 69 81 3.5 6.1 0.00 0.01 0.01 63 1020.1
20260903093532 68 80 3.5 5.2 0.00 0.01 0.01 65 1020.4
20260903091145 67 32 1.7 5.2 0.00 0.01 0.01 67 1020.9
20260903090532 67 335 1.7 3.5 0.00 0.01 0.01 66 1021.0
20260903085532 66 318 1.7 3.5 0.00 0.01 0.01 69 1021.2
20260903084144 65 75 0.9 2.6 0.00 0.01 0.01 70 1021.5
20260903083532 65 139 1.7 3.5 0.00 0.01 0.01 71 1021.5
20260903082532 65 48 0.9 2.6 0.00 0.01 0.01 70 1021.6
20260903081145 64 71 2.6 4.3 0.00 0.01 0.01 73 1021.5
20260903080532 64 68 2.6 4.3 0.00 0.01 0.01 78 1021.7
20260903075532 61 43 0.9 3.5 0.00 0.01 0.01 78 1022.0
20260903074145 62 79 1.7 3.5 0.00 0.01 0.01 79 1022.1
20260903073531 61 95 1.7 3.5 0.00 0.01 0.01 79 1022.3
20260903072531 60 152 1.7 4.3 0.00 0.01 0.01 82 1022.4
20260903071145 60 138 2.6 4.3 0.00 0.01 0.01 82 1022.6
20260903070532 60 105 1.7 4.3 0.00 0.01 0.01 84 1022.6
20260903065532 59 173 1.7 3.5 0.00 0.01 0.01 85 1022.8
20260903064144 58 115 1.7 2.6 0.00 0.01 0.01 86 1023.0
20260903063531 58 164 0.9 2.6 0.00 0.01 0.01 88 1022.9
20260903062532 57 209 0.9 1.7 0.00 0.01 0.01 92 1023.1
20260903061145 56 166 0.0 0.9 0.00 0.01 0.01 94 1023.3
20260903060532 56 307 0.9 1.7 0.00 0.01 0.01 95 1023.3
20260903055531 55 301 0.0 1.7 0.00 0.01 0.01 95 1023.3
20260903054144 55 68 0.0 1.7 0.00 0.01 0.01 96 1023.3
20260903053532 55 250 0.0 1.7 0.00 0.01 0.01 96 1023.3
20260903052532 55 190 0.9 1.7 0.00 0.01 0.01 96 1023.2
20260903051145 54 238 0.9 1.7 0.00 0.01 0.01 95 1023.2
20260903050531 53 265 1.7 2.6 0.00 0.01 0.01 95 1023.3
20260903045532 54 306 1.7 2.6 0.00 0.01 0.01 95 1023.2
20260903044144 54 323 0.9 2.6 0.00 0.01 0.01 95 1023.1
20260903043531 55 99 0.9 1.7 0.00 0.01 0.01 96 1023.0
20260903042532 55 79 1.7 3.5 0.00 0.01 0.01 95 1022.9
20260903041144 54 49 2.6 4.3 0.00 0.01 0.01 96 1022.9
20260903040532 54 32 3.5 4.3 0.00 0.01 0.01 95 1023.0
20260903035532 54 28 1.7 3.5 0.00 0.01 0.01 95 1022.9
20260903034531 54 59 1.7 2.6 0.00 0.01 0.01 94 1023.0
20260903033531 54 35 1.7 3.5 0.00 0.01 0.01 94 1023.0
20260903032532 55 85 0.0 0.9 0.00 0.01 0.01 96 1022.8
20260903031145 54 238 0.9 1.7 0.00 0.01 0.01 96 1023.0
20260903030532 53 252 1.7 1.7 0.00 0.01 0.01 96 1023.0
20260903025532 53 234 0.9 1.7 0.00 0.01 0.01 96 1023.0
20260903024532 53 243 1.7 1.7 0.00 0.01 0.01 96 1023.2
20260903023532 53 328 1.7 1.7 0.00 0.01 0.01 96 1023.2
20260903022532 53 320 3.5 4.3 0.00 0.01 0.01 95 1023.2
20260903021144 53 316 2.6 3.5 0.00 0.01 0.01 95 1023.3
20260903020532 54 346 2.6 3.5 0.00 0.01 0.00 95 1023.3
20260903015532 55 360 1.7 3.5 0.00 0.01 0.00 96 1023.1
20260903014144 55 31 0.9 3.5 0.00 0.01 0.00 95 1023.2
20260903012531 56 135 1.7 2.6 0.00 0.01 0.00 95 1022.8
20260903011145 56 191 0.9 1.7 0.00 0.01 0.00 95 1022.8
20260903010532 56 277 0.0 4.3 0.00 0.01 0.00 95 1022.8
20260903005532 55 322 4.3 5.2 0.00 0.02 0.00 95 1023.0
20260903004145 56 319 2.6 3.5 0.00 0.02 0.00 95 1022.9
20260903003532 56 332 1.7 3.5 0.00 0.02 0.00 95 1022.8
20260903002532 56 321 2.6 4.3 0.00 0.02 0.00 94 1022.9
20260903001544 57 347 2.6 5.2 0.00 0.02 0.00 93 1022.8
20260903000531 57 82 1.7 6.1 0.00 0.02 0.00 92 1022.9
20260902235531 57 155 3.5 5.2 0.00 0.02 0.00 92 1022.8
20260902234145 57 135 2.6 6.1 0.00 0.02 0.00 92 1022.8
20260902233531 57 128 1.7 5.2 0.00 0.02 0.00 92 1022.6
20260902232531 57 353 3.5 4.3 0.00 0.02 0.00 93 1022.7
20260902231532 56 321 3.5 7.0 0.00 0.02 0.00 93 1022.8
20260902230532 56 246 2.6 4.3 0.00 0.02 0.00 93 1022.7
20260902225532 57 213 0.9 2.6 0.00 0.02 0.00 91 1022.8
20260902224145 56 21 0.9 2.6 0.00 0.02 0.00 91 1022.8
20260902223532 57 60 1.7 2.6 0.00 0.02 0.00 89 1022.5
20260902222532 57 36 1.7 3.5 0.00 0.02 0.00 90 1022.5
20260902221145 57 36 1.7 2.6 0.00 0.02 0.00 90 1022.5
20260902220531 57 47 1.7 2.6 0.00 0.02 0.02 90 1022.6
20260902215532 56 80 0.9 2.6 0.00 0.02 0.02 90 1022.6
20260902214145 57 55 1.7 2.6 0.00 0.02 0.02 90 1022.4
20260902213531 57 47 0.9 1.7 0.00 0.02 0.02 90 1022.3
20260902211145 56 360 1.7 2.6 0.00 0.02 0.02 92 1022.3
20260902210532 56 15 1.7 2.6 0.00 0.02 0.02 89 1022.3
20260902205532 57 79 0.9 1.7 0.00 0.02 0.02 91 1022.1
20260902204146 57 54 0.9 2.6 0.00 0.02 0.02 90 1022.0
20260902203531 58 65 2.6 3.5 0.00 0.02 0.02 90 1021.8
20260902202532 57 48 0.9 1.7 0.00 0.02 0.02 90 1022.0
20260902201145 57 4 1.7 3.5 0.00 0.02 0.02 89 1022.0
20260902200532 59 76 3.5 5.2 0.00 0.02 0.02 87 1021.7
20260902195532 59 100 2.6 4.3 0.00 0.02 0.02 86 1021.7
20260902194145 60 92 2.6 4.3 0.00 0.02 0.02 86 1021.5
20260902193532 60 80 2.6 4.3 0.00 0.02 0.02 86 1021.5
20260902192531 60 80 3.5 5.2 0.00 0.02 0.02 86 1021.2
20260902191145 61 84 3.5 4.3 0.00 0.02 0.02 85 1021.2
20260902190531 61 81 3.5 4.3 0.00 0.02 0.02 85 1021.0
20260902185532 61 76 3.5 5.2 0.00 0.02 0.02 84 1020.8
20260902184145 61 67 0.9 2.6 0.00 0.02 0.02 81 1020.9
20260902183532 62 7 0.0 2.6 0.00 0.02 0.02 79 1020.7
20260902182532 62 51 1.7 3.5 0.00 0.02 0.02 78 1020.5
20260902181145 62 18 2.6 3.5 0.00 0.02 0.02 78 1020.0
20260902180532 64 45 3.5 5.2 0.00 0.02 0.02 75 1019.7
20260902175532 64 51 4.3 6.1 0.00 0.02 0.02 77 1019.6
20260902174145 65 90 4.3 6.1 0.00 0.02 0.02 73 1019.2
20260902173531 65 100 5.2 8.7 0.00 0.02 0.02 72 1019.0
20260902172532 65 92 7.8 9.6 0.00 0.02 0.02 70 1019.0
20260902171145 66 80 6.1 8.7 0.00 0.02 0.02 67 1018.9
20260902170532 67 93 4.3 6.1 0.00 0.02 0.02 64 1018.8
20260902165532 67 92 5.2 8.7 0.00 0.02 0.02 64 1018.8
20260902164145 69 94 7.0 9.6 0.00 0.02 0.02 61 1018.7
20260902163532 70 81 7.0 8.7 0.00 0.02 0.02 59 1018.4
20260902162532 70 78 7.8 9.6 0.00 0.02 0.02 60 1018.3
20260902161145 69 92 7.8 9.6 0.00 0.02 0.02 64 1018.4
20260902160531 70 90 8.7 10.4 0.00 0.02 0.02 62 1018.5
20260902155532 69 96 5.2 8.7 0.00 0.02 0.02 62 1018.4
20260902154145 69 96 7.8 11.3 0.00 0.02 0.02 65 1018.5
20260902153532 68 65 8.7 12.2 0.00 0.02 0.02 65 1018.7
20260902152532 67 67 11.3 14.8 0.00 0.02 0.02 67 1018.8
20260902151145 68 81 10.4 13.9 0.00 0.02 0.02 65 1018.7
20260902150532 68 83 11.3 13.9 0.00 0.02 0.02 66 1018.5
20260902145532 69 74 11.3 14.8 0.00 0.02 0.02 62 1018.4
20260902144145 71 71 9.6 13.0 0.00 0.02 0.02 54 1018.1
20260902143531 71 49 8.7 12.2 0.00 0.02 0.02 54 1017.7
20260902142532 70 51 11.3 13.9 0.00 0.02 0.02 56 1017.8
20260902141145 69 59 11.3 14.8 0.00 0.02 0.02 55 1018.3
20260902140532 69 69 13.0 19.1 0.00 0.02 0.02 55 1018.4
20260902135532 70 79 15.6 22.6 0.00 0.02 0.02 52 1018.3
20260902134144 72 66 13.9 20.0 0.00 0.02 0.02 46 1017.6
20260902133532 75 66 6.1 14.8 0.00 0.02 0.02 44 1017.1
20260902132532 76 70 5.2 13.0 0.00 0.02 0.02 44 1017.0